TimeCDT,TemperatureF,Dew PointF,Humidity,Sea Level PressureIn,VisibilityMPH,Wind Direction,Wind SpeedMPH,Gust SpeedMPH,PrecipitationIn,Events,Conditions,WindDirDegrees,DateUTC
12:15 AM,44.6,41.0,87,29.79,10.0,SE,11.5,-,N/A,,Clear,140,2012-10-21 05:15:00
12:35 AM,44.6,41.0,87,29.78,10.0,SE,12.7,-,N/A,,Clear,140,2012-10-21 05:35:00
12:55 AM,44.6,41.0,87,29.78,10.0,SE,13.8,-,N/A,,Clear,140,2012-10-21 05:55:00
1:15 AM,44.6,41.0,87,29.79,10.0,SSE,13.8,17.3,N/A,,Clear,150,2012-10-21 06:15:00
1:35 AM,44.6,39.2,81,29.79,10.0,SE,11.5,-,N/A,,Clear,140,2012-10-21 06:35:00
1:55 AM,44.6,39.2,81,29.78,10.0,SE,12.7,-,N/A,,Clear,140,2012-10-21 06:55:00
2:15 AM,44.6,39.2,81,29.78,10.0,SSE,11.5,-,N/A,,Clear,150,2012-10-21 07:15:00
2:35 AM,42.8,39.2,87,29.78,10.0,SSE,9.2,-,N/A,,Clear,150,2012-10-21 07:35:00
2:55 AM,42.8,39.2,87,29.78,10.0,SSE,9.2,-,N/A,,Clear,150,2012-10-21 07:55:00
3:15 AM,42.8,39.2,87,29.77,10.0,SE,8.1,-,N/A,,Clear,140,2012-10-21 08:15:00
3:35 AM,42.8,39.2,87,29.77,10.0,SE,9.2,-,N/A,,Clear,140,2012-10-21 08:35:00
3:55 AM,42.8,39.2,87,29.77,10.0,Calm,Calm,-,N/A,,Clear,0,2012-10-21 08:55:00
4:15 AM,41.0,37.4,87,29.78,10.0,SE,3.5,-,N/A,,Clear,130,2012-10-21 09:15:00
4:34 AM,41.0,37.4,87,29.78,10.0,Calm,Calm,-,N/A,,Clear,0,2012-10-21 09:34:00
4:55 AM,41.0,37.4,87,29.78,10.0,SE,8.1,-,N/A,,Clear,130,2012-10-21 09:55:00
5:15 AM,41.0,37.4,87,29.77,10.0,SE,10.4,-,N/A,,Clear,130,2012-10-21 10:15:00
5:35 AM,41.0,37.4,87,29.77,10.0,ESE,10.4,-,N/A,,Clear,120,2012-10-21 10:35:00
5:55 AM,41.0,37.4,87,29.78,10.0,SE,3.5,-,N/A,,Clear,130,2012-10-21 10:55:00
6:15 AM,41.0,37.4,87,29.77,10.0,SE,9.2,-,N/A,,Clear,130,2012-10-21 11:15:00
6:35 AM,42.8,39.2,87,29.77,10.0,SE,11.5,-,N/A,,Clear,130,2012-10-21 11:35:00
6:55 AM,42.8,39.2,87,29.77,10.0,SE,10.4,-,N/A,,Clear,130,2012-10-21 11:55:00
7:15 AM,42.8,39.2,87,29.75,10.0,SE,11.5,-,N/A,,Clear,130,2012-10-21 12:15:00
7:35 AM,42.8,39.2,87,29.75,10.0,SE,11.5,-,N/A,,Clear,130,2012-10-21 12:35:00
7:55 AM,42.8,37.4,81,29.75,10.0,ESE,11.5,-,N/A,,Clear,120,2012-10-21 12:55:00
8:14 AM,42.8,39.2,87,29.75,10.0,SE,13.8,-,N/A,,Clear,130,2012-10-21 13:14:00
8:35 AM,44.6,39.2,81,29.75,10.0,SE,13.8,19.6,N/A,,Clear,140,2012-10-21 13:35:00
8:55 AM,44.6,39.2,81,29.75,10.0,SE,16.1,-,N/A,,Clear,140,2012-10-21 13:55:00
9:14 AM,46.4,42.8,87,29.75,10.0,SE,16.1,-,N/A,,Clear,140,2012-10-21 14:14:00
9:35 AM,48.2,42.8,82,29.75,10.0,SSE,19.6,23.0,N/A,,Clear,150,2012-10-21 14:35:00
9:55 AM,50.0,44.6,82,29.74,10.0,SSE,17.3,21.9,N/A,,Clear,150,2012-10-21 14:55:00
10:15 AM,51.8,44.6,76,29.74,10.0,SE,17.3,21.9,N/A,,Clear,140,2012-10-21 15:15:00
10:35 AM,53.6,44.6,72,29.73,10.0,SE,17.3,-,N/A,,Clear,140,2012-10-21 15:35:00
10:55 AM,53.6,46.4,77,29.73,10.0,SSE,19.6,23.0,N/A,,Clear,150,2012-10-21 15:55:00
11:15 AM,55.4,46.4,72,29.73,10.0,SSE,18.4,24.2,N/A,,Clear,150,2012-10-21 16:15:00
11:35 AM,57.2,46.4,67,29.75,10.0,South,12.7,18.4,N/A,,Clear,170,2012-10-21 16:35:00
11:54 AM,60.8,48.2,63,29.76,10.0,South,15.0,19.6,N/A,,Clear,170,2012-10-21 16:54:00
12:15 PM,62.6,48.2,59,29.76,10.0,South,13.8,-,N/A,,Clear,180,2012-10-21 17:15:00
12:35 PM,62.6,48.2,59,29.76,10.0,South,11.5,17.3,N/A,,Clear,180,2012-10-21 17:35:00
12:55 PM,62.6,48.2,59,29.76,10.0,South,6.9,-,N/A,,Clear,190,2012-10-21 17:55:00
1:15 PM,64.4,48.2,56,29.77,10.0,South,9.2,-,N/A,,Clear,180,2012-10-21 18:15:00
1:35 PM,66.2,48.2,52,29.76,10.0,South,11.5,16.1,N/A,,Clear,190,2012-10-21 18:35:00
1:55 PM,66.2,48.2,52,29.76,10.0,SSW,8.1,-,N/A,,Clear,200,2012-10-21 18:55:00
2:15 PM,68.0,48.2,49,29.75,10.0,SW,4.6,-,N/A,,Clear,220,2012-10-21 19:15:00
2:35 PM,69.8,46.4,43,29.76,10.0,Calm,Calm,-,N/A,,Clear,0,2012-10-21 19:35:00
2:55 PM,69.8,48.2,46,29.76,10.0,SSW,5.8,-,N/A,,Clear,210,2012-10-21 19:55:00
3:15 PM,69.8,48.2,46,29.77,10.0,Calm,Calm,-,N/A,,Clear,0,2012-10-21 20:15:00
3:35 PM,69.8,48.2,46,29.77,10.0,Calm,Calm,-,N/A,,Clear,0,2012-10-21 20:35:00
3:55 PM,69.8,44.6,40,29.78,10.0,WSW,4.6,10.4,N/A,,Clear,240,2012-10-21 20:55:00
4:15 PM,68.0,48.2,49,29.78,10.0,NW,11.5,-,N/A,,Clear,310,2012-10-21 21:15:00
4:32 PM,66.2,46.4,49,29.79,10.0,WNW,11.5,-,N/A,,Clear,300,2012-10-21 21:32:00
4:55 PM,66.2,46.4,49,29.80,10.0,NW,10.4,-,N/A,,Clear,310,2012-10-21 21:55:00
5:15 PM,64.4,46.4,52,29.81,10.0,NW,11.5,-,N/A,,Clear,310,2012-10-21 22:15:00
5:35 PM,62.6,46.4,55,29.81,10.0,NW,9.2,-,N/A,,Clear,310,2012-10-21 22:35:00
5:54 PM,60.8,48.2,63,29.81,10.0,NW,6.9,10.4,N/A,,Clear,310,2012-10-21 22:54:00
6:15 PM,59.0,46.4,63,29.82,10.0,Calm,Calm,-,N/A,,Clear,0,2012-10-21 23:15:00
6:35 PM,57.2,46.4,67,29.83,10.0,NW,4.6,-,N/A,,Clear,320,2012-10-21 23:35:00
6:54 PM,55.4,46.4,72,29.84,10.0,Calm,Calm,-,N/A,,Clear,0,2012-10-21 23:54:00
7:15 PM,53.6,46.4,77,29.85,10.0,Calm,Calm,-,N/A,,Clear,0,2012-10-22 00:15:00
7:35 PM,53.6,46.4,77,29.85,10.0,WNW,9.2,-,N/A,,Clear,300,2012-10-22 00:35:00
7:55 PM,53.6,46.4,77,29.86,10.0,NW,9.2,-,N/A,,Clear,320,2012-10-22 00:55:00
8:15 PM,51.8,46.4,82,29.87,10.0,NW,11.5,-,N/A,,Clear,320,2012-10-22 01:15:00
8:35 PM,51.8,44.6,76,29.88,10.0,NW,10.4,-,N/A,,Clear,320,2012-10-22 01:35:00
8:55 PM,50.0,44.6,82,29.89,10.0,NW,10.4,-,N/A,,Clear,320,2012-10-22 01:55:00
9:15 PM,48.2,44.6,87,29.90,10.0,Calm,Calm,-,N/A,,Clear,0,2012-10-22 02:15:00
9:35 PM,48.2,44.6,87,29.91,10.0,Calm,Calm,-,N/A,,Clear,0,2012-10-22 02:35:00
9:55 PM,48.2,44.6,87,29.91,10.0,Calm,Calm,-,N/A,,Clear,0,2012-10-22 02:55:00
10:15 PM,48.2,44.6,87,29.92,10.0,Calm,Calm,-,N/A,,Clear,0,2012-10-22 03:15:00
10:34 PM,46.4,42.8,87,29.92,7.0,Calm,Calm,-,N/A,,Clear,0,2012-10-22 03:34:00
10:55 PM,44.6,41.0,87,29.92,7.0,Calm,Calm,-,N/A,,Clear,0,2012-10-22 03:55:00
11:15 PM,42.8,39.2,87,29.92,7.0,Calm,Calm,-,N/A,,Clear,0,2012-10-22 04:15:00
11:35 PM,44.6,41.0,87,29.91,7.0,Calm,Calm,-,N/A,,Clear,0,2012-10-22 04:35:00
11:55 PM,44.6,42.8,93,29.91,7.0,Calm,Calm,-,N/A,,Clear,0,2012-10-22 04:55:00